Weather History for Klamath Falls, OR

Change the Weather History Date:

Sunday, August 17, 2014

  Actual Average Record
Temperature  
Mean Temperature 69 °F 65 °F  
Max Temperature 87 °F 83 °F 94 °F (1950)
Min Temperature 50 °F 47 °F 31 °F (1972)
Degree Days  
Heating Degree Days 0 2  
Month to date heating degree days 7 27  
Since 1 June heating degree days 192 294  
Since 1 July heating degree days 17 77  
Cooling Degree Days 4 2  
Month to date cooling degree days 74 46  
Year to date cooling degree days 302 140  
Since 1 June cooling degree days 302 139  
Growing Degree Days 20 (Base 50)    
Moisture  
Dew Point 46 °F    
Average Humidity 49    
Maximum Humidity 89    
Minimum Humidity 11    
Precipitation  
Precipitation 0.00 in 0.02 in 0.43 in (1941)
Month to date precipitation 0.90 0.21  
Year to date precipitation 7.49 9.52  
Sea Level Pressure  
Sea Level Pressure 29.99 in    
Wind  
Wind Speed 6 mph (NW)    
Max Wind Speed 18 mph    
Max Gust Speed 23 mph    
Visibility 10 miles    
Events      
T = Trace of Precipitation, MM = Missing Value Source: NWS Daily Summary

Daily Weather History Graph

Daily Weather History Graph

Search for Another Location

Airport:

Trip Planner

Search our weather history database for the weather conditions in past years. The results will help you decide how hot, cold, wet, or windy it might be!

Date:

Astronomy

Aug. 17, 2014 Rise Set
Actual Time 6:16 AM PDT 8:04 PM PDT
Civil Twilight 5:46 AM PDT 8:34 PM PDT
Nautical Twilight 5:10 AM PDT 9:10 PM PDT
Astronomical Twilight 4:30 AM PDT 9:49 PM PDT
Moon No Moon Rise 2:16 PM PDT (8/17)
Length of Visible Light 14h 47m
Length of Day
13h 47m
Waning Gibbous, 47% of the Moon is Illuminated
Aug 17
Waning Gibbous
Aug 25
New
Sep 2
First Quarter
Sep 8
Full
Sep 15
Last Quarter

Hourly Weather History & Observations

Time (PDT) Temp. Dew Point Humidity Pressure Visibility Wind Dir Wind Speed Gust Speed Precip Events Conditions
12:53 AM 61.0 °F 46.9 °F 60% 30.02 in 10.0 mi Calm Calm - N/A   Smoke
1:53 AM 55.9 °F 48.0 °F 75% 30.03 in 10.0 mi Calm Calm - N/A   Smoke
2:53 AM 55.0 °F 46.9 °F 74% 30.03 in 10.0 mi Calm Calm - N/A   Smoke
3:53 AM 55.0 °F 48.9 °F 80% 30.03 in 10.0 mi South 3.5 mph - N/A   Smoke
4:53 AM 52.0 °F 48.0 °F 86% 30.04 in 10.0 mi Calm Calm - N/A   Smoke
5:53 AM 52.0 °F 46.9 °F 83% 30.04 in 10.0 mi Calm Calm - N/A   Smoke
6:53 AM 52.0 °F 46.0 °F 80% 30.05 in 10.0 mi Calm Calm - N/A   Smoke
7:53 AM 57.9 °F 50.0 °F 75% 30.06 in 10.0 mi Calm Calm - N/A   Smoke
8:53 AM 66.0 °F 52.0 °F 60% 30.05 in 10.0 mi SSE 5.8 mph - N/A   Smoke
9:53 AM 71.1 °F 54.0 °F 55% 30.04 in 10.0 mi SE 6.9 mph - N/A   Smoke
10:53 AM 75.0 °F 50.0 °F 41% 30.03 in 10.0 mi Calm Calm - N/A   Smoke
11:53 AM 79.0 °F 50.0 °F 36% 30.01 in 10.0 mi Variable 3.5 mph - N/A   Smoke
12:53 PM 82.0 °F 48.0 °F 30% 29.99 in 10.0 mi South 8.1 mph - N/A   Smoke
1:53 PM 84.9 °F 42.1 °F 22% 29.98 in 10.0 mi Variable 5.8 mph - N/A   Clear
2:53 PM 84.0 °F 37.0 °F 19% 29.96 in 10.0 mi Variable 3.5 mph - N/A   Clear
3:53 PM 84.9 °F 35.1 °F 17% 29.94 in 10.0 mi Variable 3.5 mph - N/A   Clear
4:53 PM 87.1 °F 26.1 °F 11% 29.92 in 10.0 mi West 8.1 mph - N/A   Clear
5:53 PM 82.9 °F 39.9 °F 22% 29.92 in 10.0 mi NNW 13.8 mph - N/A   Clear
6:53 PM 81.0 °F 41.0 °F 24% 29.92 in 10.0 mi NNW 15.0 mph - N/A   Clear
7:53 PM 77.0 °F 45.0 °F 32% 29.93 in 10.0 mi NNW 16.1 mph - N/A   Mostly Cloudy
8:53 PM 73.9 °F 48.9 °F 41% 29.93 in 10.0 mi NNW 10.4 mph - N/A   Partly Cloudy
9:53 PM 71.1 °F 50.0 °F 47% 29.96 in 10.0 mi NNW 13.8 mph - N/A   Clear
10:53 PM 69.1 °F 48.9 °F 49% 29.95 in 10.0 mi NNW 12.7 mph - N/A   Clear